User: anonymous   Login
Location: Theydon Bois
(51.6750°N, 0.1050°E)
Time: 06:37:02
(UTC+00:00)
Language:

ALOS - Orbit

View from above orbital plane
View from above orbital plane
View from above satellite
View from above satellite

Ground track
Ground track

The orbit data is extracted from the following two-line orbital elements,

1 28931U 06002A   17348.77244932  .00000130  00000-0  34313-4 0  9994
2 28931  97.8301   6.9670 0002522  89.6173 270.5309 14.62435355633855
Epoch (UTC): 14 December 2017 18:32:19
Eccentricity: 0.0002522
inclination: 97.8301°
perigee height: 683 km
apogee height: 687 km
right ascension of ascending node: 6.9670°
argument of perigee: 89.6173°
revolutions per day: 14.62435355
mean anomaly at epoch: 270.5309°
orbit number at epoch: 63385

The dashed part of the orbit path shows where the satellite is in the earth's shadow,  

DLR